Time,TemperatureF,DewpointF,PressureIn,WindDirection,WindDirectionDegrees,WindSpeedMPH,WindSpeedGustMPH,Humidity,HourlyPrecipIn,Conditions,Clouds,dailyrainin,SoftwareType,DateUTC
2013-04-23 00:03:00,34.0,31.0,30.63,WSW,245,0.0,0.0,89,0.00,,,0.00,,2013-04-23 04:03:00,
2013-04-23 00:12:00,34.0,31.0,30.63,WSW,245,0.0,0.0,89,0.00,,,0.00,,2013-04-23 04:12:00,
2013-04-23 00:23:00,33.0,30.0,30.62,WSW,245,0.0,0.0,88,0.00,,,0.00,,2013-04-23 04:23:00,
2013-04-23 00:33:00,33.0,30.0,30.62,WSW,245,0.0,0.0,89,0.00,,,0.00,,2013-04-23 04:33:00,
2013-04-23 00:43:00,33.0,30.0,30.62,WSW,245,0.0,0.0,89,0.00,,,0.00,,2013-04-23 04:43:00,
2013-04-23 00:53:00,32.0,29.0,30.62,WSW,245,0.0,0.0,90,0.00,,,0.00,,2013-04-23 04:53:00,
2013-04-23 01:02:00,32.0,29.0,30.61,WSW,245,0.0,0.0,90,0.00,,,0.00,,2013-04-23 05:02:00,
2013-04-23 01:12:00,32.0,29.0,30.61,WSW,245,0.0,0.0,90,0.00,,,0.00,,2013-04-23 05:12:00,
2013-04-23 01:22:00,31.0,29.0,30.60,WSW,245,0.0,0.0,92,0.00,,,0.00,,2013-04-23 05:22:00,
2013-04-23 01:32:00,31.0,29.0,30.60,WSW,245,0.0,0.0,92,0.00,,,0.00,,2013-04-23 05:32:00,
2013-04-23 01:42:00,31.0,29.0,30.60,WSW,245,0.0,0.0,92,0.00,,,0.00,,2013-04-23 05:42:00,
2013-04-23 01:52:00,31.0,29.0,30.60,WSW,245,0.0,0.0,93,0.00,,,0.00,,2013-04-23 05:52:00,
2013-04-23 02:02:00,31.0,29.0,30.59,WSW,245,0.0,0.0,93,0.00,,,0.00,,2013-04-23 06:02:00,
2013-04-23 02:12:00,31.0,29.0,30.59,WSW,245,0.0,0.0,93,0.00,,,0.00,,2013-04-23 06:12:00,
2013-04-23 02:22:00,32.0,30.0,30.58,WSW,245,0.0,0.0,94,0.00,,,0.00,,2013-04-23 06:22:00,
2013-04-23 02:33:00,32.0,30.0,30.58,WSW,245,0.0,1.0,94,0.00,,,0.00,,2013-04-23 06:33:00,
2013-04-23 02:42:00,32.0,30.0,30.58,WSW,245,0.0,1.0,94,0.00,,,0.00,,2013-04-23 06:42:00,
2013-04-23 02:52:00,33.0,31.0,30.57,WSW,245,0.0,0.0,92,0.00,,,0.00,,2013-04-23 06:52:00,
2013-04-23 03:02:00,33.0,31.0,30.56,WSW,245,0.0,0.0,92,0.00,,,0.00,,2013-04-23 07:02:00,
2013-04-23 03:11:00,33.0,31.0,30.56,WSW,245,0.0,0.0,92,0.00,,,0.00,,2013-04-23 07:11:00,
2013-04-23 03:22:00,34.0,31.0,30.56,WNW,282,1.0,1.0,90,0.00,,,0.00,,2013-04-23 07:22:00,
2013-04-23 03:32:00,34.0,31.0,30.55,WNW,283,0.0,1.0,90,0.00,,,0.00,,2013-04-23 07:32:00,
2013-04-23 03:42:00,34.0,31.0,30.55,WNW,283,0.0,1.0,90,0.00,,,0.00,,2013-04-23 07:42:00,
2013-04-23 03:52:00,35.0,32.0,30.55,WNW,283,0.0,1.0,89,0.00,,,0.00,,2013-04-23 07:52:00,
2013-04-23 04:02:00,35.0,32.0,30.55,WNW,283,0.0,1.0,88,0.00,,,0.00,,2013-04-23 08:02:00,
2013-04-23 04:11:00,35.0,32.0,30.55,WNW,283,0.0,1.0,88,0.00,,,0.00,,2013-04-23 08:11:00,
2013-04-23 04:21:00,35.0,32.0,30.54,WNW,294,1.0,2.0,87,0.00,,,0.00,,2013-04-23 08:21:00,
2013-04-23 04:32:00,36.0,33.0,30.54,West,276,0.0,2.0,87,0.00,,,0.00,,2013-04-23 08:32:00,
2013-04-23 04:42:00,36.0,33.0,30.54,West,276,0.0,2.0,87,0.00,,,0.00,,2013-04-23 08:42:00,
2013-04-23 04:52:00,36.0,32.0,30.53,WSW,255,0.0,2.0,86,0.00,,,0.00,,2013-04-23 08:52:00,
2013-04-23 05:02:00,36.0,32.0,30.53,WNW,292,0.0,1.0,86,0.00,,,0.00,,2013-04-23 09:02:00,
2013-04-23 05:11:00,36.0,32.0,30.53,WNW,292,0.0,1.0,86,0.00,,,0.00,,2013-04-23 09:11:00,
2013-04-23 05:21:00,36.0,32.0,30.53,WNW,285,0.0,2.0,85,0.00,,,0.00,,2013-04-23 09:21:00,
2013-04-23 05:33:00,36.0,32.0,30.53,WNW,283,0.0,1.0,85,0.00,,,0.00,,2013-04-23 09:33:00,
2013-04-23 05:43:00,36.0,32.0,30.53,WNW,283,0.0,1.0,85,0.00,,,0.00,,2013-04-23 09:43:00,
2013-04-23 05:53:00,36.0,32.0,30.53,West,260,0.0,2.0,86,0.00,,,0.00,,2013-04-23 09:53:00,
2013-04-23 06:03:00,36.0,32.0,30.52,West,273,0.0,2.0,85,0.00,,,0.00,,2013-04-23 10:03:00,
2013-04-23 06:13:00,36.0,32.0,30.52,West,273,0.0,2.0,85,0.00,,,0.00,,2013-04-23 10:13:00,
2013-04-23 06:23:00,37.0,33.0,30.52,WNW,288,0.0,1.0,85,0.00,,,0.00,,2013-04-23 10:23:00,
2013-04-23 06:33:00,37.0,33.0,30.52,West,277,0.0,2.0,85,0.00,,,0.00,,2013-04-23 10:33:00,
2013-04-23 06:42:00,37.0,33.0,30.52,West,277,0.0,2.0,85,0.00,,,0.00,,2013-04-23 10:42:00,
2013-04-23 06:52:00,37.0,33.0,30.52,West,279,0.0,2.0,85,0.00,,,0.00,,2013-04-23 10:52:00,
2013-04-23 07:03:00,37.0,33.0,30.52,WSW,256,0.0,2.0,85,0.00,,,0.00,,2013-04-23 11:03:00,
2013-04-23 07:12:00,37.0,33.0,30.52,WSW,256,0.0,2.0,85,0.00,,,0.00,,2013-04-23 11:12:00,
2013-04-23 07:22:00,37.0,33.0,30.52,West,277,0.0,1.0,85,0.00,,,0.00,,2013-04-23 11:22:00,
2013-04-23 07:32:00,37.0,33.0,30.52,WNW,297,1.0,3.0,84,0.00,,,0.00,,2013-04-23 11:32:00,
2013-04-23 07:43:00,37.0,33.0,30.52,WNW,297,1.0,3.0,84,0.00,,,0.00,,2013-04-23 11:43:00,
2013-04-23 07:53:00,37.0,33.0,30.52,West,266,0.0,2.0,86,0.00,,,0.00,,2013-04-23 11:53:00,
2013-04-23 08:02:00,37.0,34.0,30.52,NNW,335,0.0,3.0,87,0.00,,,0.00,,2013-04-23 12:02:00,
2013-04-23 08:12:00,37.0,34.0,30.52,NNW,335,0.0,3.0,87,0.00,,,0.00,,2013-04-23 12:12:00,
2013-04-23 08:22:00,37.0,34.0,30.52,West,281,0.0,5.0,90,0.00,,,0.00,,2013-04-23 12:22:00,
2013-04-23 08:32:00,37.0,35.0,30.52,WNW,295,0.0,1.0,91,0.00,,,0.00,,2013-04-23 12:32:00,
2013-04-23 08:42:00,37.0,35.0,30.52,WNW,295,0.0,1.0,91,0.00,,,0.00,,2013-04-23 12:42:00,
2013-04-23 08:52:00,37.0,35.0,30.51,WNW,295,1.0,2.0,92,0.00,,,0.00,,2013-04-23 12:52:00,
2013-04-23 09:01:00,37.0,35.0,30.51,West,281,0.0,1.0,93,0.00,,,0.00,,2013-04-23 13:01:00,
2013-04-23 09:11:00,37.0,35.0,30.51,West,281,0.0,1.0,93,0.00,,,0.00,,2013-04-23 13:11:00,
2013-04-23 09:22:00,37.0,35.0,30.50,West,266,0.0,3.0,93,0.00,,,0.00,,2013-04-23 13:22:00,
2013-04-23 09:32:00,37.0,35.0,30.50,West,273,0.0,1.0,94,0.00,,,0.00,,2013-04-23 13:32:00,
2013-04-23 09:42:00,37.0,35.0,30.50,West,273,0.0,1.0,94,0.00,,,0.00,,2013-04-23 13:42:00,
2013-04-23 09:52:00,38.0,36.0,30.49,WSW,248,0.0,2.0,94,0.00,,,0.00,,2013-04-23 13:52:00,
2013-04-23 10:02:00,38.0,36.0,30.49,NW,312,1.0,2.0,94,0.00,,,0.00,,2013-04-23 14:02:00,
2013-04-23 10:11:00,38.0,36.0,30.49,NW,312,1.0,2.0,94,0.00,,,0.00,,2013-04-23 14:11:00,
2013-04-23 10:22:00,38.0,37.0,30.49,WNW,302,0.0,2.0,95,0.00,,,0.00,,2013-04-23 14:22:00,
2013-04-23 10:32:00,38.0,36.0,30.48,SE,124,0.0,2.0,94,0.00,,,0.00,,2013-04-23 14:32:00,
2013-04-23 10:42:00,38.0,36.0,30.48,SE,124,0.0,2.0,94,0.00,,,0.00,,2013-04-23 14:42:00,
2013-04-23 10:52:00,38.0,36.0,30.48,WNW,295,0.0,4.0,94,0.00,,,0.00,,2013-04-23 14:52:00,
2013-04-23 11:01:00,38.0,36.0,30.48,WNW,295,0.0,4.0,94,0.00,,,0.00,,2013-04-23 15:01:00,
2013-04-23 11:12:00,38.0,36.0,30.48,ESE,102,0.0,2.0,94,0.00,,,0.00,,2013-04-23 15:12:00,
2013-04-23 11:22:00,39.0,37.0,30.48,WNW,284,0.0,4.0,94,0.00,,,0.00,,2013-04-23 15:22:00,
2013-04-23 11:32:00,39.0,37.0,30.47,WNW,283,1.0,3.0,94,0.00,,,0.00,,2013-04-23 15:32:00,
2013-04-23 11:43:00,39.0,37.0,30.47,WNW,283,1.0,3.0,94,0.00,,,0.00,,2013-04-23 15:43:00,
2013-04-23 11:53:00,39.0,37.0,30.47,West,280,0.0,2.0,94,0.00,,,0.00,,2013-04-23 15:53:00,
2013-04-23 12:03:00,39.0,37.0,30.47,WSW,256,1.0,3.0,94,0.00,,,0.00,,2013-04-23 16:03:00,
2013-04-23 12:12:00,39.0,37.0,30.47,WSW,256,1.0,3.0,94,0.00,,,0.00,,2013-04-23 16:12:00,
2013-04-23 12:23:00,39.0,37.0,30.46,West,270,1.0,3.0,94,0.00,,,0.00,,2013-04-23 16:23:00,
2013-04-23 12:34:00,39.0,37.0,30.45,NNW,347,0.0,2.0,94,0.00,,,0.00,,2013-04-23 16:34:00,
2013-04-23 12:43:00,39.0,37.0,30.45,NNW,347,0.0,2.0,94,0.00,,,0.00,,2013-04-23 16:43:00,
2013-04-23 12:53:00,39.0,37.0,30.44,SW,219,1.0,4.0,94,0.00,,,0.00,,2013-04-23 16:53:00,
2013-04-23 13:02:00,39.0,37.0,30.44,East,91,0.0,2.0,94,0.00,,,0.00,,2013-04-23 17:02:00,
2013-04-23 13:12:00,39.0,37.0,30.44,East,91,0.0,2.0,94,0.00,,,0.00,,2013-04-23 17:12:00,
2013-04-23 13:22:00,40.0,39.0,30.43,SE,143,0.0,1.0,95,0.00,,,0.00,,2013-04-23 17:22:00,
2013-04-23 13:33:00,40.0,38.0,30.42,West,263,0.0,2.0,94,0.00,,,0.00,,2013-04-23 17:33:00,
2013-04-23 13:42:00,40.0,38.0,30.42,West,263,0.0,2.0,94,0.00,,,0.00,,2013-04-23 17:42:00,
2013-04-23 13:53:00,40.0,39.0,30.41,WNW,293,2.0,3.0,95,0.00,,,0.00,,2013-04-23 17:53:00,
2013-04-23 14:02:00,40.0,39.0,30.41,NW,318,0.0,2.0,95,0.00,,,0.00,,2013-04-23 18:02:00,
2013-04-23 14:12:00,40.0,39.0,30.41,NW,318,0.0,2.0,95,0.00,,,0.00,,2013-04-23 18:12:00,
2013-04-23 14:22:00,40.0,39.0,30.40,WNW,285,0.0,2.0,95,0.00,,,0.00,,2013-04-23 18:22:00,
2013-04-23 14:32:00,40.0,39.0,30.40,WNW,298,1.0,2.0,95,0.00,,,0.00,,2013-04-23 18:32:00,
2013-04-23 14:42:00,40.0,39.0,30.40,WNW,298,1.0,2.0,95,0.00,,,0.00,,2013-04-23 18:42:00,
2013-04-23 14:52:00,40.0,39.0,30.39,West,281,0.0,2.0,95,0.01,,,0.01,,2013-04-23 18:52:00,
2013-04-23 15:02:00,40.0,39.0,30.38,WNW,291,0.0,2.0,95,0.01,,,0.01,,2013-04-23 19:02:00,
2013-04-23 15:11:00,40.0,39.0,30.38,WNW,291,0.0,2.0,95,0.01,,,0.01,,2013-04-23 19:11:00,
2013-04-23 15:22:00,41.0,40.0,30.37,WNW,285,0.0,5.0,96,0.01,,,0.01,,2013-04-23 19:22:00,
2013-04-23 15:32:00,41.0,40.0,30.37,East,89,1.0,3.0,96,0.01,,,0.01,,2013-04-23 19:32:00,
2013-04-23 15:42:00,41.0,40.0,30.37,East,89,1.0,3.0,96,0.01,,,0.01,,2013-04-23 19:42:00,
2013-04-23 15:52:00,41.0,40.0,30.35,West,281,1.0,2.0,96,0.00,,,0.01,,2013-04-23 19:52:00,
2013-04-23 16:02:00,41.0,40.0,30.35,NW,311,1.0,3.0,95,0.00,,,0.01,,2013-04-23 20:02:00,
2013-04-23 16:11:00,41.0,40.0,30.35,NW,311,1.0,3.0,95,0.00,,,0.01,,2013-04-23 20:11:00,
2013-04-23 16:22:00,41.0,40.0,30.35,West,273,1.0,4.0,95,0.00,,,0.01,,2013-04-23 20:22:00,
2013-04-23 16:32:00,41.0,40.0,30.35,WNW,291,0.0,5.0,96,0.00,,,0.01,,2013-04-23 20:32:00,
2013-04-23 16:42:00,41.0,40.0,30.35,WNW,291,0.0,5.0,96,0.00,,,0.01,,2013-04-23 20:42:00,
2013-04-23 16:52:00,41.0,40.0,30.35,WNW,293,0.0,4.0,96,0.01,,,0.02,,2013-04-23 20:52:00,
2013-04-23 17:02:00,41.0,40.0,30.35,WNW,300,1.0,3.0,96,0.01,,,0.02,,2013-04-23 21:02:00,
2013-04-23 17:12:00,41.0,40.0,30.35,WNW,300,1.0,3.0,96,0.01,,,0.02,,2013-04-23 21:12:00,
2013-04-23 17:22:00,40.0,39.0,30.34,ESE,114,0.0,2.0,96,0.01,,,0.02,,2013-04-23 21:22:00,
2013-04-23 17:33:00,41.0,40.0,30.34,SSE,150,0.0,2.0,96,0.01,,,0.02,,2013-04-23 21:33:00,
2013-04-23 17:43:00,41.0,40.0,30.34,SSE,150,0.0,2.0,96,0.01,,,0.02,,2013-04-23 21:43:00,
2013-04-23 17:53:00,40.0,39.0,30.33,WNW,288,0.0,3.0,96,0.00,,,0.02,,2013-04-23 21:53:00,
2013-04-23 18:03:00,40.0,39.0,30.33,West,269,1.0,5.0,96,0.00,,,0.02,,2013-04-23 22:03:00,
2013-04-23 18:12:00,40.0,39.0,30.33,West,269,1.0,5.0,96,0.00,,,0.02,,2013-04-23 22:12:00,
2013-04-23 18:23:00,40.0,39.0,30.31,West,277,0.0,4.0,96,0.00,,,0.02,,2013-04-23 22:23:00,
2013-04-23 18:33:00,40.0,39.0,30.31,NW,318,1.0,2.0,96,0.00,,,0.02,,2013-04-23 22:33:00,
2013-04-23 18:42:00,40.0,39.0,30.31,NW,318,1.0,2.0,96,0.00,,,0.02,,2013-04-23 22:42:00,
2013-04-23 18:52:00,40.0,39.0,30.30,WNW,297,1.0,3.0,96,0.00,,,0.02,,2013-04-23 22:52:00,
2013-04-23 19:03:00,40.0,39.0,30.29,NNW,329,1.0,3.0,96,0.00,,,0.02,,2013-04-23 23:03:00,
2013-04-23 19:12:00,40.0,39.0,30.29,NNW,329,1.0,3.0,96,0.00,,,0.02,,2013-04-23 23:12:00,
2013-04-23 19:22:00,40.0,39.0,30.29,West,280,1.0,3.0,96,0.00,,,0.02,,2013-04-23 23:22:00,
2013-04-23 19:32:00,40.0,39.0,30.29,NW,316,1.0,4.0,96,0.00,,,0.02,,2013-04-23 23:32:00,
2013-04-23 19:42:00,40.0,39.0,30.29,NW,316,1.0,4.0,96,0.00,,,0.02,,2013-04-23 23:42:00,
2013-04-23 19:52:00,40.0,39.0,30.29,East,100,0.0,5.0,96,0.00,,,0.02,,2013-04-23 23:52:00,
2013-04-23 20:02:00,40.0,39.0,30.28,West,278,0.0,3.0,96,0.00,,,0.02,,2013-04-24 00:02:00,
2013-04-23 20:11:00,40.0,39.0,30.28,West,278,0.0,3.0,96,0.00,,,0.02,,2013-04-24 00:11:00,
2013-04-23 20:22:00,40.0,39.0,30.28,NW,305,1.0,3.0,97,0.00,,,0.02,,2013-04-24 00:22:00,
2013-04-23 20:32:00,40.0,39.0,30.28,WNW,291,1.0,3.0,97,0.00,,,0.02,,2013-04-24 00:32:00,
2013-04-23 20:42:00,40.0,39.0,30.28,WNW,291,1.0,3.0,97,0.00,,,0.02,,2013-04-24 00:42:00,
2013-04-23 20:52:00,40.0,39.0,30.26,NW,306,1.0,7.0,97,0.00,,,0.02,,2013-04-24 00:52:00,
2013-04-23 21:02:00,40.0,39.0,30.25,NW,320,1.0,3.0,97,0.00,,,0.02,,2013-04-24 01:02:00,
2013-04-23 21:11:00,40.0,39.0,30.25,NW,320,1.0,3.0,97,0.00,,,0.02,,2013-04-24 01:11:00,
2013-04-23 21:21:00,40.0,39.0,30.25,West,259,1.0,4.0,97,0.00,,,0.02,,2013-04-24 01:21:00,
2013-04-23 21:32:00,40.0,39.0,30.26,NNW,333,0.0,3.0,97,0.00,,,0.02,,2013-04-24 01:32:00,
2013-04-23 21:42:00,40.0,39.0,30.26,NNW,333,0.0,3.0,97,0.00,,,0.02,,2013-04-24 01:42:00,
2013-04-23 21:52:00,40.0,39.0,30.24,West,271,1.0,1.0,97,0.00,,,0.02,,2013-04-24 01:52:00,
2013-04-23 22:02:00,40.0,39.0,30.24,WNW,301,1.0,3.0,97,0.00,,,0.02,,2013-04-24 02:02:00,
2013-04-23 22:19:00,40.0,39.0,30.24,WNW,301,1.0,3.0,97,0.00,,,0.02,,2013-04-24 02:19:00,
2013-04-23 22:30:00,40.0,39.0,30.23,North,352,1.0,3.0,97,0.01,,,0.03,,2013-04-24 02:30:00,
2013-04-23 22:40:00,40.0,39.0,30.22,NW,310,1.0,3.0,97,0.01,,,0.03,,2013-04-24 02:40:00,
2013-04-23 22:48:00,40.0,39.0,30.22,NW,310,1.0,3.0,97,0.01,,,0.03,,2013-04-24 02:48:00,
2013-04-23 23:01:00,40.0,39.0,30.22,WSW,249,0.0,6.0,97,0.01,,,0.03,,2013-04-24 03:01:00,
2013-04-23 23:11:00,40.0,39.0,30.22,West,260,1.0,4.0,97,0.00,,,0.03,,2013-04-24 03:11:00,
2013-04-23 23:18:00,40.0,39.0,30.22,West,260,1.0,4.0,97,0.00,,,0.03,,2013-04-24 03:18:00,
2013-04-23 23:31:00,40.0,39.0,30.21,WNW,297,2.0,6.0,97,0.00,,,0.03,,2013-04-24 03:31:00,
2013-04-23 23:51:00,40.0,39.0,30.20,WNW,290,2.0,6.0,97,0.00,,,0.03,,2013-04-24 03:51:00,